Tracking 29892 objects as of 21-Nov-2024
HD Live streaming from Space Station
objects crossing your sky now

STARLINK-3069

Track STARLINK-3069 now!
10-day predictions
STARLINK-3069 is classified as:


NORAD ID: 49176
Int'l Code: 2021-082AY
Perigee: 577.2 km
Apogee: 581.2 km
Inclination: 70.0 °
Period: 96.1 minutes
Semi major axis: 6950 km
RCS: Unknown
Launch date: September 14, 2021
Source: United States (US)
Launch site: AIR FORCE WESTERN TEST RANGE (AFWTR)
Your satellite tracking list
Your tracking list is empty




NASA's NSSDC Master Catalog

Two Line Element Set (TLE):
1 49176U 21082AY  24325.57584299 -.00000481  00000-0 -32518-4 0  9993
2 49176  69.9999   9.8610 0002923 274.0427  86.0398 14.98332645175941
Source of the keplerian elements: AFSPC